Find Starlink 5291

NORAD ID: 55273 Int'l Des: 2023-010 Owner: SPXS Country: US Constellation: starlink operational
LEOCIRCULAR

現在のビュー

3D地球を読み込み中...

About Starlink 5291

Starlink 5291 (NORAD 55273) is a starlink constellation satellite (v1.5) launched Jan 19, 2023 by SPXS of US. It operates in LEO, CIRCULAR orbit with a mass of 305.00 kg.

次回通過

Passes for default location (London). Set your location on the main map for personalized predictions.

高度履歴

Loading altitude history...

軌道要素

1 55273U 23010E 26237.68678734 .00001478 00000-0 13162-3 0 9993
2 55273 69.9986 338.2127 0003519 269.1547 90.9209 14.98348145198104
Epoch: Aug 25, 2026 • Age: 15 hours

現在のステータス

高度 574.0 km
遠地点 / 近地点 N/A
速度 7.57 km/s
衛星直下点 5.46°N, 64.9°E
打ち上げ日 Jan 19, 2023
運用期間 3.5 years
タイプ internet

技術仕様

分類 Payload
質量 305.00 kg
乾燥質量 290.00 kg
総質量 305.00 kg
長さ 0.20 m
直径 2.80 m
スパン 9.00 m
形状 Box + pan
製造者 SPXS
バスタイプ Starlink
フェーズステータス In Orbit
所有者/国 SPXS/US

Most Searched